Location: Ingoldesthorpe
(52.8667°N, 0.5167°E)
Time: 03:48:36
(UTC+00:00)

Meteor 2-15 Rocket - Pass Details

Date: 19 May 2025
Orbit: 938 x 956 km, 82.5° (Epoch: 13 June)

Event Time Altitude Azimuth Distance (km) Brightness Sun altitude
Rises 22:51:35 0° 349° (NNW) 3,638 9.4 -15.9°
Reaches altitude 10° 22:54:06 10° 351° (N) 2,686 8.2 -16.0°
Maximum altitude 23:00:16 76° 77° (ENE) 980 4.5 -16.2°
Enters shadow 23:04:01 25° 160° (SSE) 1,814 5.3 -16.3°
